RYR27AY EPKK-LICC

Flight info

Callsign RYR27AY
Flight time 1h 53m
Altitude 34000
Route BABKO DCT NIDOK DCT XOMBA DCT VEBAL DCT NOVLO DCT KATTI/N0441F350 DCT VEBOX DCT KUTID DCT PELEN Q789 UXUTA
Aircraft B38M/M-SDE1FGHILORVWXY/HB1

Departure

Time 2026-05-01 13:21
Airport Kraków John Paul II International Airport (EPKK)

Arrival

Time 2026-05-01 15:14
Airport Catania-Fontanarossa Airport (LICC)
Time Latitude Longitude Altitude Speed Heading
2026-05-01 12:53 50.07280 19.79776 802 ft 0 kts 167°
2026-05-01 12:59 50.07281 19.79776 802 ft 0 kts 167°
2026-05-01 13:13 50.07290 19.79773 802 ft 4 kts 169°
2026-05-01 13:13 50.07325 19.79766 802 ft 4 kts 177°
2026-05-01 13:14 50.07344 19.79765 802 ft 4 kts 181°
2026-05-01 13:14 50.07371 19.79768 802 ft 4 kts 186°
2026-05-01 13:14 50.07397 19.79773 802 ft 4 kts 186°
2026-05-01 13:14 50.07422 19.79774 802 ft 2 kts 168°
2026-05-01 13:15 50.07423 19.79774 802 ft 2 kts 168°
2026-05-01 13:17 50.07380 19.79894 802 ft 11 kts 78°
2026-05-01 13:17 50.07397 19.80016 802 ft 9 kts 77°
2026-05-01 13:18 50.07434 19.80272 802 ft 13 kts 77°
2026-05-01 13:18 50.07473 19.80377 802 ft 13 kts 23°
2026-05-01 13:18 50.07557 19.80419 802 ft 11 kts 16°
2026-05-01 13:18 50.07647 19.80402 802 ft 16 kts 348°
2026-05-01 13:19 50.07739 19.80372 802 ft 13 kts 348°
2026-05-01 13:19 50.07844 19.80336 802 ft 18 kts 348°
2026-05-01 13:19 50.08011 19.80243 802 ft 11 kts 291°
2026-05-01 13:20 50.08005 19.80148 803 ft 0 kts 258°
2026-05-01 13:20 50.07991 19.80045 803 ft 39 kts 258°
2026-05-01 13:21 50.07642 19.77502 1013 ft 174 kts 260°
2026-05-01 13:21 50.07400 19.75527 1723 ft 197 kts 262°
2026-05-01 13:21 50.07100 19.73442 2843 ft 203 kts 259°
2026-05-01 13:21 50.06760 19.71169 3629 ft 228 kts 260°
2026-05-01 13:22 50.06366 19.68643 4647 ft 245 kts 255°
2026-05-01 13:22 50.05456 19.66302 5803 ft 266 kts 227°
2026-05-01 13:22 50.03924 19.64537 6892 ft 281 kts 206°
2026-05-01 13:22 50.02048 19.63617 8111 ft 288 kts 193°
2026-05-01 13:23 50.00054 19.62838 9126 ft 301 kts 193°
2026-05-01 13:23 49.98014 19.62020 10167 ft 311 kts 193°
2026-05-01 13:23 49.95936 19.61172 10944 ft 328 kts 193°
2026-05-01 13:23 49.93667 19.60236 11687 ft 346 kts 193°
2026-05-01 13:24 49.91304 19.59260 12576 ft 357 kts 193°
2026-05-01 13:24 49.88873 19.58260 13598 ft 363 kts 192°
2026-05-01 13:24 49.86410 19.57248 14556 ft 370 kts 192°
2026-05-01 13:25 49.81347 19.55171 16302 ft 380 kts 192°
2026-05-01 13:25 49.78768 19.54116 17141 ft 387 kts 192°
2026-05-01 13:25 49.76147 19.53045 18009 ft 391 kts 192°
2026-05-01 13:25 49.73501 19.51964 18782 ft 396 kts 192°
2026-05-01 13:26 49.70814 19.50868 19473 ft 401 kts 191°
2026-05-01 13:26 49.68138 19.49779 20177 ft 405 kts 191°
2026-05-01 13:26 49.65397 19.48663 20877 ft 410 kts 191°
2026-05-01 13:26 49.62627 19.47538 21545 ft 414 kts 191°
2026-05-01 13:27 49.59904 19.45993 22113 ft 424 kts 207°
2026-05-01 13:27 49.57396 19.43595 22934 ft 423 kts 208°
2026-05-01 13:27 49.52219 19.38963 24014 ft 435 kts 208°
2026-05-01 13:28 49.46930 19.34261 25052 ft 443 kts 208°
2026-05-01 13:28 49.44250 19.31883 25582 ft 446 kts 208°
2026-05-01 13:29 49.38838 19.27089 26608 ft 452 kts 208°
2026-05-01 13:29 49.33343 19.22236 27585 ft 458 kts 208°
2026-05-01 13:30 49.22134 19.12374 29465 ft 471 kts 208°
2026-05-01 13:31 49.16407 19.07355 30314 ft 477 kts 208°
2026-05-01 13:31 49.07684 18.99736 31365 ft 486 kts 208°
2026-05-01 13:32 49.01810 18.94623 32047 ft 491 kts 208°
2026-05-01 13:33 48.92811 18.86817 33019 ft 499 kts 208°
2026-05-01 13:33 48.86738 18.81676 33617 ft 504 kts 203°
2026-05-01 13:34 48.80356 18.77242 34324 ft 506 kts 203°
2026-05-01 13:34 48.73964 18.72811 34338 ft 503 kts 203°
2026-05-01 13:35 48.64415 18.66216 34328 ft 502 kts 203°
2026-05-01 13:36 48.54921 18.59685 34328 ft 502 kts 202°
2026-05-01 13:36 48.45387 18.53141 34337 ft 502 kts 203°
2026-05-01 13:37 48.39022 18.48798 34323 ft 503 kts 203°
2026-05-01 13:37 48.32644 18.44454 34336 ft 503 kts 203°
2026-05-01 13:38 48.23084 18.37970 34335 ft 503 kts 203°
2026-05-01 13:39 48.16699 18.33652 34331 ft 504 kts 203°
2026-05-01 13:39 48.10345 18.29367 34335 ft 504 kts 203°
2026-05-01 13:40 48.03945 18.25064 34343 ft 504 kts 203°
2026-05-01 13:40 47.97540 18.20769 34340 ft 504 kts 203°
2026-05-01 13:41 47.91185 18.16519 34339 ft 504 kts 203°
2026-05-01 13:41 47.84785 18.12250 34346 ft 504 kts 203°
2026-05-01 13:42 47.78385 18.07991 34351 ft 504 kts 203°
2026-05-01 13:42 47.71827 18.04408 34415 ft 498 kts 194°
2026-05-01 13:43 47.65128 18.01477 34339 ft 500 kts 194°
2026-05-01 13:43 47.58504 17.98525 34358 ft 501 kts 194°
2026-05-01 13:44 47.51814 17.95546 34349 ft 501 kts 194°
2026-05-01 13:44 47.45143 17.92584 34349 ft 501 kts 194°
2026-05-01 13:45 47.38461 17.89626 34341 ft 501 kts 194°
2026-05-01 13:45 47.31832 17.86698 34346 ft 501 kts 194°
2026-05-01 13:46 47.25150 17.83754 34348 ft 501 kts 194°
2026-05-01 13:46 47.18469 17.80819 34347 ft 501 kts 194°
2026-05-01 13:47 47.11788 17.77892 34342 ft 501 kts 194°
2026-05-01 13:47 47.05088 17.74964 34350 ft 501 kts 194°
2026-05-01 13:48 46.98458 17.72074 34349 ft 500 kts 194°
2026-05-01 13:48 46.91776 17.69170 34341 ft 500 kts 194°
2026-05-01 13:49 46.85098 17.66273 34348 ft 500 kts 194°
2026-05-01 13:49 46.78460 17.63403 34352 ft 500 kts 194°
2026-05-01 13:50 46.71773 17.60518 34352 ft 501 kts 194°
2026-05-01 13:50 46.65066 17.57632 34353 ft 501 kts 194°
2026-05-01 13:51 46.58414 17.54777 34354 ft 501 kts 193°
2026-05-01 13:51 46.51706 17.51906 34355 ft 501 kts 193°
2026-05-01 13:52 46.45006 17.49045 34355 ft 501 kts 193°
2026-05-01 13:52 46.38361 17.46215 34355 ft 500 kts 193°
2026-05-01 13:53 46.31669 17.43373 34356 ft 500 kts 193°
2026-05-01 13:53 46.21626 17.39120 34343 ft 500 kts 193°
2026-05-01 13:54 46.14942 17.36299 34391 ft 500 kts 193°
2026-05-01 13:54 46.08274 17.33588 34346 ft 500 kts 191°
2026-05-01 13:55 46.01534 17.31031 34340 ft 500 kts 191°
2026-05-01 13:55 45.94790 17.28452 34344 ft 500 kts 191°
2026-05-01 13:56 45.88063 17.25888 34344 ft 500 kts 191°
2026-05-01 13:56 45.81367 17.23340 34345 ft 501 kts 191°
2026-05-01 13:57 45.75712 17.21194 34348 ft 502 kts 191°
2026-05-01 13:57 45.67872 17.18226 34346 ft 501 kts 191°
2026-05-01 13:58 45.61116 17.15675 34340 ft 501 kts 190°
2026-05-01 13:58 45.54361 17.13131 34340 ft 502 kts 190°
2026-05-01 13:59 45.48749 17.11022 34343 ft 502 kts 190°
2026-05-01 13:59 45.40908 17.08084 34345 ft 501 kts 190°
2026-05-01 14:00 45.34156 17.05560 34339 ft 502 kts 190°
2026-05-01 14:00 45.28555 17.03470 34342 ft 502 kts 190°
2026-05-01 14:01 45.21810 17.00961 34331 ft 500 kts 190°
2026-05-01 14:01 45.15077 16.98460 34332 ft 500 kts 190°
2026-05-01 14:02 45.08341 16.95966 34348 ft 500 kts 190°
2026-05-01 14:02 45.01591 16.93474 34332 ft 500 kts 191°
2026-05-01 14:03 44.94901 16.91006 34322 ft 501 kts 190°
2026-05-01 14:03 44.88144 16.88523 34339 ft 500 kts 190°
2026-05-01 14:04 44.81436 16.86063 34330 ft 498 kts 190°
2026-05-01 14:04 44.74720 16.83606 34328 ft 498 kts 190°
2026-05-01 14:05 44.68009 16.81155 34328 ft 497 kts 191°
2026-05-01 14:05 44.61317 16.78720 34323 ft 497 kts 191°
2026-05-01 14:06 44.54661 16.76300 34304 ft 497 kts 191°
2026-05-01 14:06 44.47963 16.73875 34349 ft 498 kts 191°
2026-05-01 14:07 44.41270 16.71453 34311 ft 496 kts 191°
2026-05-01 14:08 44.31228 16.67833 34296 ft 496 kts 192°
2026-05-01 14:08 44.24540 16.65431 34281 ft 495 kts 191°
2026-05-01 14:09 44.17899 16.63050 34282 ft 496 kts 191°
2026-05-01 14:09 44.11212 16.60657 34264 ft 495 kts 192°
2026-05-01 14:10 44.04522 16.58270 34271 ft 496 kts 192°
2026-05-01 14:10 43.97836 16.55888 34247 ft 496 kts 192°
2026-05-01 14:11 43.91154 16.53515 34264 ft 494 kts 192°
2026-05-01 14:11 43.81196 16.49989 34255 ft 495 kts 192°
2026-05-01 14:12 43.74564 16.47644 34240 ft 484 kts 193°
2026-05-01 14:12 43.68079 16.45361 34236 ft 480 kts 193°
2026-05-01 14:13 43.61639 16.43096 34233 ft 480 kts 193°
2026-05-01 14:13 43.55159 16.40822 34200 ft 481 kts 193°
2026-05-01 14:14 43.48666 16.38550 34211 ft 481 kts 193°
2026-05-01 14:14 43.42179 16.36283 34215 ft 481 kts 193°
2026-05-01 14:15 43.35739 16.34038 34189 ft 476 kts 193°
2026-05-01 14:15 43.29300 16.31800 34213 ft 477 kts 193°
2026-05-01 14:16 43.22899 16.29578 34236 ft 477 kts 193°
2026-05-01 14:16 43.16446 16.27345 34221 ft 479 kts 193°
2026-05-01 14:17 43.09980 16.25110 34210 ft 479 kts 193°
2026-05-01 14:17 43.03556 16.22895 34222 ft 480 kts 194°
2026-05-01 14:18 42.97056 16.20661 34220 ft 483 kts 194°
2026-05-01 14:18 42.91641 16.18801 34219 ft 482 kts 194°
2026-05-01 14:19 42.84033 16.16194 34226 ft 479 kts 194°
2026-05-01 14:19 42.77571 16.13987 34219 ft 477 kts 194°
2026-05-01 14:20 42.67907 16.10693 34224 ft 478 kts 195°
2026-05-01 14:21 42.61545 16.08530 34220 ft 473 kts 195°
2026-05-01 14:21 42.55158 16.06364 34231 ft 473 kts 195°
2026-05-01 14:22 42.48794 16.04091 34780 ft 472 kts 198°
2026-05-01 14:22 42.45638 16.02868 35074 ft 472 kts 198°
2026-05-01 14:22 42.42471 16.01635 35241 ft 475 kts 198°
2026-05-01 14:22 42.39302 16.00400 35235 ft 471 kts 198°
2026-05-01 14:23 42.33001 15.97948 35231 ft 471 kts 198°
2026-05-01 14:23 42.26737 15.95516 35234 ft 472 kts 198°
2026-05-01 14:24 42.20423 15.93071 35234 ft 471 kts 198°
2026-05-01 14:24 42.14101 15.90627 35226 ft 471 kts 198°
2026-05-01 14:25 42.07796 15.88194 35217 ft 470 kts 198°
2026-05-01 14:25 42.01555 15.85791 35215 ft 469 kts 198°
2026-05-01 14:26 41.92123 15.82169 35213 ft 469 kts 198°
2026-05-01 14:27 41.85848 15.79766 35211 ft 467 kts 199°
2026-05-01 14:27 41.79594 15.77375 35212 ft 468 kts 199°
2026-05-01 14:28 41.70247 15.73811 35234 ft 467 kts 199°
2026-05-01 14:28 41.63986 15.71430 35238 ft 468 kts 199°
2026-05-01 14:29 41.57720 15.69052 35233 ft 467 kts 199°
2026-05-01 14:30 41.45213 15.64319 35234 ft 466 kts 199°
2026-05-01 14:31 41.35842 15.60785 35238 ft 469 kts 199°
2026-05-01 14:31 41.29580 15.58429 35234 ft 466 kts 200°
2026-05-01 14:32 41.23333 15.56085 35238 ft 466 kts 200°
2026-05-01 14:32 41.17095 15.53746 35229 ft 466 kts 200°
2026-05-01 14:33 41.10931 15.51159 35227 ft 464 kts 203°
2026-05-01 14:33 41.04798 15.48470 35211 ft 463 kts 203°
2026-05-01 14:34 40.98719 15.45800 35217 ft 463 kts 203°
2026-05-01 14:34 40.92600 15.43118 35193 ft 463 kts 203°
2026-05-01 14:35 40.86513 15.40459 35206 ft 460 kts 203°
2026-05-01 14:35 40.80445 15.37808 35191 ft 460 kts 203°
2026-05-01 14:36 40.74361 15.35158 35186 ft 460 kts 203°
2026-05-01 14:36 40.68294 15.32520 35197 ft 458 kts 204°
2026-05-01 14:37 40.62235 15.29891 35182 ft 458 kts 204°
2026-05-01 14:37 40.56219 15.27285 35161 ft 459 kts 204°
2026-05-01 14:38 40.50135 15.24655 35165 ft 459 kts 205°
2026-05-01 14:38 40.44065 15.22036 35165 ft 459 kts 205°
2026-05-01 14:39 40.37929 15.19624 35181 ft 461 kts 202°
2026-05-01 14:39 40.31766 15.17320 35133 ft 460 kts 203°
2026-05-01 14:40 40.25620 15.15026 35147 ft 459 kts 203°
2026-05-01 14:40 40.19476 15.12737 35140 ft 459 kts 203°
2026-05-01 14:41 40.13368 15.10464 35133 ft 459 kts 204°
2026-05-01 14:41 40.07229 15.08185 35138 ft 458 kts 204°
2026-05-01 14:42 40.01090 15.05910 35146 ft 458 kts 204°
2026-05-01 14:42 39.94953 15.03640 35146 ft 458 kts 204°
2026-05-01 14:43 39.88822 15.01376 35130 ft 457 kts 204°
2026-05-01 14:43 39.82691 14.99115 35145 ft 458 kts 204°
2026-05-01 14:44 39.76602 14.96878 35140 ft 458 kts 204°
2026-05-01 14:44 39.70466 14.94625 34926 ft 458 kts 204°
2026-05-01 14:44 39.67399 14.93501 34814 ft 458 kts 204°
2026-05-01 14:45 39.64326 14.92375 34680 ft 459 kts 204°
2026-05-01 14:45 39.58131 14.90107 34432 ft 464 kts 204°
2026-05-01 14:45 39.55020 14.88972 34311 ft 465 kts 204°
2026-05-01 14:46 39.51886 14.87828 34120 ft 465 kts 204°
2026-05-01 14:46 39.45709 14.85579 33578 ft 463 kts 205°
2026-05-01 14:46 39.42613 14.84452 33337 ft 462 kts 205°
2026-05-01 14:47 39.39527 14.83329 33077 ft 461 kts 205°
2026-05-01 14:47 39.36443 14.82209 32776 ft 460 kts 205°
2026-05-01 14:47 39.33369 14.81094 32466 ft 459 kts 205°
2026-05-01 14:48 39.28269 14.79245 31924 ft 456 kts 206°
2026-05-01 14:48 39.25215 14.78139 31627 ft 455 kts 206°
2026-05-01 14:48 39.19119 14.75934 31042 ft 454 kts 206°
2026-05-01 14:49 39.13046 14.73743 30472 ft 453 kts 207°
2026-05-01 14:49 39.06985 14.71559 29761 ft 450 kts 207°
2026-05-01 14:50 39.01968 14.69753 29156 ft 450 kts 207°
2026-05-01 14:50 38.94890 14.67210 28322 ft 453 kts 206°
2026-05-01 14:51 38.91855 14.66123 27969 ft 454 kts 206°
2026-05-01 14:51 38.85784 14.63950 27256 ft 455 kts 206°
2026-05-01 14:52 38.79670 14.61765 26587 ft 456 kts 206°
2026-05-01 14:52 38.76598 14.60667 26259 ft 458 kts 206°
2026-05-01 14:52 38.70480 14.58488 25613 ft 459 kts 206°
2026-05-01 14:53 38.67406 14.57394 25290 ft 457 kts 206°
2026-05-01 14:53 38.64346 14.56305 24933 ft 456 kts 206°
2026-05-01 14:53 38.61286 14.55219 24617 ft 454 kts 206°
2026-05-01 14:53 38.58249 14.54141 24319 ft 452 kts 206°
2026-05-01 14:54 38.55221 14.53065 24013 ft 451 kts 206°
2026-05-01 14:54 38.52232 14.52006 23718 ft 450 kts 206°
2026-05-01 14:54 38.49221 14.50940 23350 ft 448 kts 206°
2026-05-01 14:54 38.46224 14.49880 22985 ft 446 kts 206°
2026-05-01 14:55 38.43249 14.48828 22593 ft 443 kts 205°
2026-05-01 14:55 38.40282 14.47780 22243 ft 441 kts 205°
2026-05-01 14:55 38.37323 14.46735 21890 ft 439 kts 205°
2026-05-01 14:55 38.34308 14.45997 21480 ft 450 kts 192°
2026-05-01 14:56 38.31144 14.46307 21126 ft 464 kts 175°
2026-05-01 14:56 38.28079 14.47709 20773 ft 474 kts 158°
2026-05-01 14:56 38.25219 14.49821 20464 ft 472 kts 156°
2026-05-01 14:56 38.22375 14.51750 20108 ft 467 kts 158°
2026-05-01 14:57 38.19484 14.53580 19722 ft 461 kts 159°
2026-05-01 14:57 38.13762 14.57053 19163 ft 445 kts 160°
2026-05-01 14:57 38.11010 14.58691 19155 ft 428 kts 161°
2026-05-01 14:58 38.08363 14.60258 19154 ft 412 kts 161°
2026-05-01 14:58 38.05807 14.61768 19157 ft 397 kts 161°
2026-05-01 14:58 38.03331 14.63227 19159 ft 388 kts 161°
2026-05-01 14:58 38.00884 14.64667 19154 ft 387 kts 161°
2026-05-01 14:59 37.98442 14.66102 19154 ft 386 kts 161°
2026-05-01 14:59 37.96033 14.67519 19128 ft 387 kts 161°
2026-05-01 14:59 37.93533 14.68651 19144 ft 376 kts 177°
2026-05-01 14:59 37.91006 14.68660 18998 ft 352 kts 202°
2026-05-01 15:00 37.86630 14.66293 17997 ft 345 kts 210°
2026-05-01 15:00 37.84387 14.65234 17564 ft 344 kts 209°
2026-05-01 15:00 37.82143 14.64185 17141 ft 343 kts 209°
2026-05-01 15:01 37.79886 14.63136 16586 ft 346 kts 208°
2026-05-01 15:01 37.77622 14.62090 15990 ft 348 kts 208°
2026-05-01 15:01 37.75381 14.61054 15345 ft 349 kts 207°
2026-05-01 15:01 37.73113 14.60007 14718 ft 345 kts 207°
2026-05-01 15:02 37.70872 14.58971 14085 ft 342 kts 207°
2026-05-01 15:02 37.69396 14.58287 13651 ft 339 kts 206°
2026-05-01 15:02 37.66441 14.56921 12691 ft 336 kts 206°
2026-05-01 15:02 37.64248 14.55910 11969 ft 335 kts 206°
2026-05-01 15:03 37.62065 14.54904 11285 ft 332 kts 205°
2026-05-01 15:03 37.59905 14.53909 10598 ft 330 kts 205°
2026-05-01 15:03 37.57745 14.52914 9907 ft 328 kts 205°
2026-05-01 15:03 37.55608 14.51929 9146 ft 326 kts 204°
2026-05-01 15:04 37.53478 14.50948 8428 ft 324 kts 204°
2026-05-01 15:04 37.51395 14.49989 7719 ft 322 kts 203°
2026-05-01 15:04 37.49297 14.49025 7011 ft 321 kts 203°
2026-05-01 15:04 37.47196 14.48104 6279 ft 320 kts 196°
2026-05-01 15:05 37.44975 14.47927 5461 ft 322 kts 172°
2026-05-01 15:05 37.42945 14.48953 5067 ft 308 kts 141°
2026-05-01 15:05 37.41750 14.50995 5051 ft 278 kts 106°
2026-05-01 15:05 37.41608 14.53257 5074 ft 247 kts 77°
2026-05-01 15:06 37.42107 14.55205 5077 ft 226 kts 65°
2026-05-01 15:06 37.42477 14.57119 5032 ft 227 kts 84°
2026-05-01 15:06 37.42600 14.59082 5022 ft 228 kts 82°
2026-05-01 15:06 37.42759 14.61064 5004 ft 227 kts 82°
2026-05-01 15:07 37.42925 14.63041 5004 ft 227 kts 82°
2026-05-01 15:07 37.43101 14.65014 5002 ft 227 kts 81°
2026-05-01 15:07 37.43304 14.66983 5004 ft 227 kts 81°
2026-05-01 15:07 37.43495 14.68953 5007 ft 227 kts 81°
2026-05-01 15:08 37.43674 14.70923 5004 ft 227 kts 81°
2026-05-01 15:08 37.43848 14.72911 4929 ft 229 kts 82°
2026-05-01 15:08 37.44024 14.74952 4138 ft 244 kts 82°
2026-05-01 15:08 37.44215 14.77173 3305 ft 265 kts 84°
2026-05-01 15:09 37.44407 14.79490 2967 ft 260 kts 84°
2026-05-01 15:09 37.44587 14.81651 3007 ft 237 kts 83°
2026-05-01 15:09 37.44753 14.83629 2996 ft 216 kts 84°
2026-05-01 15:09 37.44904 14.85419 3071 ft 205 kts 83°
2026-05-01 15:10 37.45054 14.87225 2838 ft 207 kts 84°
2026-05-01 15:10 37.45347 14.90742 2344 ft 197 kts 84°
2026-05-01 15:10 37.45488 14.92416 2123 ft 184 kts 85°
2026-05-01 15:11 37.45618 14.93920 1874 ft 161 kts 86°
2026-05-01 15:11 37.45816 14.96379 1475 ft 130 kts 88°
2026-05-01 15:11 37.45911 14.97517 1343 ft 130 kts 88°
2026-05-01 15:12 37.46006 14.98656 1160 ft 131 kts 85°
2026-05-01 15:12 37.46197 15.00939 826 ft 131 kts 85°
2026-05-01 15:12 37.46297 15.02066 586 ft 128 kts 87°
2026-05-01 15:13 37.46576 15.05410 69 ft 128 kts 85°
2026-05-01 15:14 37.46722 15.07168 38 ft 60 kts 84°
2026-05-01 15:14 37.46790 15.07635 39 ft 52 kts 66°
2026-05-01 15:14 37.46928 15.07643 35 ft 18 kts 264°
2026-05-01 15:15 37.46909 15.07414 35 ft 13 kts 264°
2026-05-01 15:15 37.46886 15.07145 35 ft 18 kts 264°
2026-05-01 15:16 37.46867 15.06917 34 ft 9 kts 264°
2026-05-01 15:16 37.46854 15.06751 34 ft 11 kts 264°
2026-05-01 15:17 37.46848 15.06617 34 ft 0 kts 324°
2026-05-01 15:18 37.46916 15.06621 34 ft 1 kts 18°
2026-05-01 15:18 37.46917 15.06622 34 ft 0 kts 18°